View from above orbital plane
|
View from above satellite
|
Ground track
|
The orbit data is extracted from the following two-line orbital elements,
1 43137U 18004AC 22176.86232519 .00007379 00000-0 26015-3 0 9998
2 43137 97.3689 251.9430 0006622 343.6904 16.4122 15.29545758247630
Epoch (UTC): | 25 June 2022 20:41:44 |
Eccentricity: | 0.0006622 |
inclination: | 97.3689° |
perigee height: | 472 km |
apogee height: | 482 km |
right ascension of ascending node: | 251.9430° |
argument of perigee: | 343.6904° |
revolutions per day: | 15.29545758 |
mean anomaly at epoch: | 16.4122° |
orbit number at epoch: | 24763 |
The dashed part of the orbit path shows where the satellite is in the earth's shadow,
|
|